Regional Weather Roundup
Issued by NWS

Home | Current Version | Previous Version | Graphics & Text | Print | Product List | Glossary On
Versions: 1 2 3 4 5 6 7 8 9 10 11 12 13 14 15 16 17 18 19 20 21 22 23 24 25 26 27 28 29 30 31 32 33 34 35 36 37 38 39 40 41 42 43 44 45 46 47 48 49 50
000
ASUS44 KMEG 211210
RWRTN
TENNESSEE HOURLY STATE WEATHER ROUNDUP
NATIONAL WEATHER SERVICE MEMPHIS TN
700 AM CDT THU AUG 21 2014

TNZ002-004-019-021-049-052-054-088>092-211300-
WEST TENNESSEE

CITY           SKY/WX    TMP DP  RH WIND       PRES   REMARKS
MEMPHIS INTL   PTCLDY    77  71  82 SW6       30.10R
NWS MEMPHIS      N/A     77 N/A N/A MISG        N/A
JACKSON        PTCLDY    75  70  84 SW7       30.09R
DYERSBURG      PTCLDY    75  64  69 CALM      30.09R
UNION CITY     CLEAR     73  72  94 S3        30.06S
PARIS          CLEAR     70  68  94 CALM      30.09R
HUNTINGDON     PTCLDY    72  70  93 CALM      30.09R
LEXINGTON      CLEAR     72  70  94 CALM      30.10R
SAVANNAH       CLEAR     72  72 100 CALM      30.12R
$$

TNZ008-025-027-028-033-062-065-066-211300-
NORTH MIDDLE TENNESSEE

CITY           SKY/WX    TMP DP  RH WIND       PRES   REMARKS
NASHVILLE      MOCLDY    71  70  96 S5        30.11R
PORTLAND       MOCLDY    68  68 100 S8        30.09R
CLARKSVILLE    MOCLDY    71  69  93 S3        30.08R
SMYRNA         PTCLDY    70  70 100 CALM      30.12R
MURFREESBORO   PTCLDY    68  67  96 CALM      30.11R
COOKEVILLE     SUNNY     66  66 100 CALM      30.14R
GALLATIN       PTCLDY    67  67 100 CALM      30.12R
CROSSVILLE     SUNNY     67  63  87 CALM      30.19R
$$

TNZ061-075-076-078-094-096-097-211300-
SOUTH MIDDLE TENNESSEE

CITY           SKY/WX    TMP DP  RH WIND       PRES   REMARKS
LEWISBURG      PTCLDY    69  66  90 CALM      30.12R
FAYETTEVILLE   CLEAR     68  66  94 S6G13     30.14R
TULLAHOMA      CLEAR     70  66  88 CALM      30.15R
WINCHESTER     CLEAR     68  66  94 CALM      30.15R
MCMINNVILLE    CLEAR     66  66 100 CALM      30.14R
COLUMBIA       CLEAR     72  72 100 S3        30.11R
SHELBYVILLE    CLEAR     72  70  94 SE3       30.13S
$$

TNZ017-018-042-046-047-211300-
NORTHEAST TENNESSEE

CITY           SKY/WX    TMP DP  RH WIND       PRES   REMARKS
TRI CITIES     FOG       66  63  90 CALM      30.20R VSB 1
ELIZABETHTON   SUNNY     63  63 100 CALM      30.20R
$$

TNZ012-013-036-069-073-074-211300-
CENTRAL EAST TENNESSEE

CITY           SKY/WX    TMP DP  RH WIND       PRES   REMARKS
KNOXVILLE      PTSUNNY   66  65  96 E6        30.15R
OAK RIDGE      CLOUDY    67  66  97 CALM      30.17R FOG
GATLINBURG     MOSUNNY   64  63  94 CALM      30.17R
MORRISTOWN     CLOUDY    64  64 100 CALM      30.19R VSB 0
$$

TNZ083-085-099-211300-
SOUTHEAST TENNESSEE

CITY           SKY/WX    TMP DP  RH WIND       PRES   REMARKS
CHATTANOOGA    MOSUNNY   70  67  90 CALM      30.15R
$$

SKY/WX REPORTED AS FAIR MEANS FEW OR NO CLOUDS BELOW
12 THOUSAND FEET.



USA.gov is the U.S. government's official web portal to all federal, state and local government web resources and services.